KB6OQJ Weather Reports


time (UTC)temp
C
wind
direction
speed
KPH
gust
KPH
rain 1hr
cm
rain 24hr
cm
rain mn
cm
humidity
%
barometer
mb
20260507110003 11 77 0.0 0.0 0.00 0.00 0.00 3 890.1
20260507105004 11 77 0.0 0.0 0.00 0.00 0.00 3 890.1
20260507104004 12 77 0.0 0.0 0.00 0.00 0.00 3 890.1
20260507103003 12 77 0.0 0.0 0.00 0.00 0.00 3 890.1
20260507102006 12 76 0.0 0.0 0.00 0.00 0.00 3 890.1
20260507101004 12 77 0.0 0.0 0.00 0.00 0.00 3 890.1
20260507095004 11 77 0.0 0.0 0.00 0.00 0.00 3 890.1
20260507094004 11 77 0.0 0.0 0.00 0.00 0.00 3 890.1
20260507093004 12 77 0.0 0.0 0.00 0.00 0.00 3 890.1
20260507092004 12 77 0.0 0.0 0.00 0.00 0.00 3 890.1
20260507091003 12 77 0.0 0.0 0.00 0.00 0.00 3 890.1
20260507090005 12 77 0.0 0.0 0.00 0.00 0.00 3 890.1
20260507085003 12 77 0.0 0.0 0.00 0.00 0.00 3 890.1
20260507084003 12 77 0.0 0.0 0.00 0.00 0.00 3 890.1
20260507082004 12 315 0.0 0.0 0.00 0.00 0.00 4 890.1
20260507081004 12 315 0.0 0.0 0.00 0.00 0.00 5 890.1
20260507075004 12 315 0.0 0.0 0.00 0.00 0.00 7 890.1
20260507074003 12 315 0.0 0.0 0.00 0.00 0.00 9 890.1
20260507073004 12 315 0.0 0.0 0.00 0.00 0.00 10 890.1
20260507072004 12 315 0.0 0.0 0.00 0.00 0.00 14 890.1
20260507071004 12 315 0.0 0.0 0.00 0.00 0.00 16 890.1
20260507070008 12 315 0.0 0.0 0.00 0.00 0.00 18 890.1
20260507065003 13 315 0.0 0.0 0.00 0.00 0.00 20 890.1
20260507064004 13 317 0.0 0.0 0.00 0.00 0.00 23 890.1
20260507063004 13 292 0.0 0.0 0.00 0.00 0.00 29 890.1
20260507062004 13 292 0.0 0.0 0.00 0.00 0.00 37 890.1
20260507061004 13 281 0.0 0.0 0.00 0.00 0.00 41 890.1
20260507060004 13 281 0.0 0.0 0.00 0.00 0.00 44 890.1
20260507055003 13 281 0.0 0.0 0.00 0.00 0.00 45 890.1
20260507054004 13 281 0.0 0.0 0.00 0.00 0.00 46 890.1
20260507052003 13 281 0.0 0.0 0.00 0.00 0.00 46 890.1
20260507051004 13 281 0.0 0.0 0.00 0.00 0.00 46 890.1
20260507045004 14 281 0.0 0.0 0.00 0.00 0.00 46 890.1
20260507044004 14 281 0.0 0.0 0.00 0.00 0.00 48 890.1
20260507043004 15 279 0.0 0.0 0.00 0.00 0.00 51 890.1
20260507042004 15 270 0.0 4.8 0.00 0.00 0.00 54 890.1
20260507041004 15 279 0.0 3.2 0.00 0.00 0.00 57 890.1
20260507040004 15 317 0.0 4.8 0.00 0.00 0.00 60 890.1
20260507035004 15 295 0.0 1.6 0.00 0.00 0.00 61 871.3
20260507034003 16 284 0.0 3.2 0.00 0.00 0.00 63 871.7
20260507033004 16 257 0.0 4.8 0.00 0.00 0.00 64 871.7
20260507032004 16 290 0.0 1.6 0.00 0.00 0.00 64 871.7
20260507031004 16 296 0.0 4.8 0.00 0.00 0.00 65 871.7
20260507030004 17 285 0.0 0.0 0.00 0.00 0.00 65 871.7
20260507025004 17 268 0.0 4.8 0.00 0.00 0.00 65 880.6
20260507024004 17 277 0.0 12.9 0.00 0.00 0.00 65 881.5
20260507022004 18 271 0.0 11.3 0.00 0.00 0.00 64 918.2
20260507021003 18 292 1.6 16.1 0.00 0.00 0.00 64 918.2
20260507020003 19 280 3.2 19.3 0.00 0.00 0.00 64 918.2
20260507015004 20 275 3.2 20.9 0.00 0.00 0.00 63 918.2
20260507014004 20 304 1.6 14.5 0.00 0.00 0.00 62 918.2
20260507012004 21 283 1.6 20.9 0.00 0.00 0.00 60 918.2
20260507011003 21 279 3.2 20.9 0.00 0.00 0.00 60 918.2
20260507010004 21 268 4.8 22.5 0.00 0.00 0.00 59 918.2
20260507005004 21 288 6.4 22.5 0.00 0.00 0.00 59 918.2
20260507004004 22 265 8.0 20.9 0.00 0.00 0.00 58 951.0
20260507003004 22 292 9.7 20.9 0.00 0.00 0.00 58 951.0
20260507001004 22 275 9.7 24.1 0.00 0.00 0.00 57 951.0
20260507000004 22 267 9.7 29.0 0.00 0.00 0.00 56 951.0
20260506235003 23 274 11.3 32.2 0.00 0.00 0.00 55 951.0
20260506234004 23 271 14.5 29.0 0.00 0.00 0.00 54 951.0
20260506232004 24 280 11.3 24.1 0.00 0.00 0.00 53 951.0
20260506231003 24 275 11.3 32.2 0.00 0.00 0.00 52 951.0
20260506230004 24 288 14.5 29.0 0.00 0.00 0.00 52 951.0
20260506225004 25 272 12.9 25.7 0.00 0.00 0.00 52 951.0
20260506224003 25 300 6.4 27.4 0.00 0.00 0.00 51 951.0
20260506223003 25 256 14.5 25.7 0.00 0.00 0.00 51 951.0
20260506221004 25 291 9.7 29.0 0.00 0.00 0.00 51 951.0
20260506220004 25 292 9.7 27.4 0.00 0.00 0.00 51 951.0
20260506214004 25 276 4.8 29.0 0.00 0.00 0.00 51 951.0
20260506212003 25 284 9.7 32.2 0.00 0.00 0.00 51 951.0
20260506211003 25 270 9.7 32.2 0.00 0.00 0.00 51 951.0
20260506210004 25 270 9.7 32.2 0.00 0.00 0.00 51 951.0
20260506205004 25 291 8.0 27.4 0.00 0.00 0.00 51 951.0
20260506201004 25 282 14.5 33.8 0.00 0.00 0.00 50 951.0
20260506200004 25 285 6.4 25.7 0.00 0.00 0.00 51 951.0
20260506195004 25 280 8.0 24.1 0.00 0.00 0.00 50 951.0
20260506194003 25 260 1.6 16.1 0.00 0.00 0.00 49 951.0
20260506193004 25 236 3.2 19.3 0.00 0.00 0.00 50 951.0
20260506192003 24 264 3.2 9.7 0.00 0.00 0.00 51 951.0
20260506191003 24 269 3.2 9.7 0.00 0.00 0.00 50 951.0
20260506190004 23 277 1.6 8.0 0.00 0.00 0.00 52 951.0
20260506185004 23 320 1.6 8.0 0.00 0.00 0.00 53 951.0
20260506184003 23 213 1.6 14.5 0.00 0.00 0.00 54 951.0
20260506183005 22 199 3.2 14.5 0.00 0.00 0.00 54 951.0
20260506182004 22 219 0.0 3.2 0.00 0.00 0.00 55 951.0
20260506181003 21 175 0.0 1.6 0.00 0.00 0.00 56 951.0
20260506180005 21 284 0.0 3.2 0.00 0.00 0.00 56 951.0
20260506175003 21 298 0.0 0.0 0.00 0.00 0.00 56 1017.5
20260506174004 20 261 0.0 0.0 0.00 0.00 0.00 56 1017.5
20260506173004 20 306 0.0 0.0 0.00 0.00 0.00 59 1017.5
20260506172004 20 217 0.0 0.0 0.00 0.00 0.00 60 1017.5
20260506171004 19 296 0.0 0.0 0.00 0.00 0.00 60 1017.5
20260506170004 19 228 0.0 0.0 0.00 0.00 0.00 61 831.2
20260506165004 18 196 0.0 0.0 0.00 0.00 0.00 62 870.3
20260506163004 18 279 0.0 0.0 0.00 0.00 0.00 62 954.2
20260506162004 17 265 0.0 0.0 0.00 0.00 0.00 62 954.2
20260506161004 17 213 0.0 0.0 0.00 0.00 0.00 60 1017.6
20260506160004 17 273 0.0 0.0 0.00 0.00 0.00 58 894.9
20260506155004 16 272 0.0 0.0 0.00 0.00 0.00 55 938.9
20260506154004 16 209 0.0 0.0 0.00 0.00 0.00 50 1017.6
20260506153004 15 227 0.0 0.0 0.00 0.00 0.00 41 978.8
20260506152004 15 180 0.0 0.0 0.00 0.00 0.00 35 948.3
20260506151003 14 152 0.0 0.0 0.00 0.00 0.00 22 926.9
20260506150003 13 146 0.0 0.0 0.00 0.00 0.00 12 1017.8
20260506145004 12 110 0.0 0.0 0.00 0.00 0.00 4 1017.9
20260506144004 12 150 0.0 0.0 0.00 0.00 0.00 3 887.9
20260506143004 11 150 0.0 0.0 0.00 0.00 0.00 5 887.9
20260506142004 11 150 0.0 0.0 0.00 0.00 0.00 7 887.9
20260506141004 11 150 0.0 0.0 0.00 0.00 0.00 6 887.9
20260506140004 11 149 0.0 0.0 0.00 0.00 0.00 8 887.9
20260506133004 11 147 0.0 0.0 0.00 0.00 0.00 11 830.2
20260506132004 11 93 0.0 0.0 0.00 0.00 0.00 13 830.2
20260506130004 11 90 0.0 20.9 0.00 0.00 0.00 13 830.2